Weather History for Del Bajio, Mexico

Change the Weather History Date:

Tuesday, November 8, 2011

  Actual Average Record
Temperature  
Mean Temperature 68 °F -  
Max Temperature 86 °F 78 °F 86 °F (2011)
Min Temperature 51 °F 47 °F 32 °F (2010)
Cooling Degree Days 4    
Growing Degree Days 18 (Base 50)    
Moisture  
Dew Point 45 °F    
Average Humidity 49    
Maximum Humidity 76    
Minimum Humidity 23    
Precipitation  
Precipitation 0.00 in - - ()
Sea Level Pressure  
Sea Level Pressure 30.07 in    
Wind  
Wind Speed 2 mph ()    
Max Wind Speed 13 mph    
Max Gust Speed -    
Visibility 9.1 miles    
Events      
Averages and records for this station are not official NWS values.
T = Trace of Precipitation, MM = Missing Value Source: Averaged Metar Reports

Daily Weather History Graph

Daily Weather History Graph

Search for Another Location

Airport:

Trip Planner

Search our weather history database for the weather conditions in past years. The results will help you decide how hot, cold, wet, or windy it might be!

Date:

Astronomy

Nov. 08, 2011 Rise Set
Actual Time 6:52 AM CST 6:06 PM CST
Civil Twilight 6:28 AM CST 6:30 PM CST
Nautical Twilight 6:02 AM CST 6:56 PM CST
Astronomical Twilight 5:36 AM CST 7:22 PM CST
Moon 4:42 PM CST (11/8) 5:01 AM CST (11/8)
Length of Visible Light 12h 01m
Length of Day
11h 14m
Waxing Gibbous, 96% of the Moon is Illuminated
Nov 8
Waxing Gibbous
Nov 10
Full
Nov 18
Last Quarter
Nov 25
New
Dec 2
First Quarter

Hourly Weather History & Observations

Time (CST) Temp. Dew Point Humidity Pressure Visibility Wind Dir Wind Speed Gust Speed Precip Events Conditions
1:42 AM 55.4 °F 44.6 °F 67% 30.21 in 8.0 mi Calm Calm - N/A   Scattered Clouds
2:43 AM 55.4 °F 44.6 °F 67% 29.81 in 8.0 mi Calm Calm - N/A   Scattered Clouds
3:40 AM 53.6 °F 44.6 °F 72% 30.18 in 8.0 mi Calm Calm - N/A   Scattered Clouds
4:42 AM 53.6 °F 44.6 °F 72% 30.21 in 8.0 mi Calm Calm - N/A   Scattered Clouds
5:41 AM 51.8 °F 44.6 °F 76% 29.85 in 8.0 mi Calm Calm - N/A   Scattered Clouds
6:49 AM 51.8 °F 44.6 °F 76% 30.24 in 10.0 mi Calm Calm - N/A   Scattered Clouds
7:45 AM 55.4 °F 46.4 °F 72% 30.24 in 10.0 mi Calm Calm - N/A   Scattered Clouds
8:41 AM 64.4 °F 48.2 °F 56% 29.91 in 10.0 mi Calm Calm - N/A   Scattered Clouds
10:42 AM 75.2 °F 48.2 °F 38% 30.27 in 10.0 mi SW 6.9 mph - N/A   Scattered Clouds
11:48 AM 78.8 °F 48.2 °F 34% 29.84 in 10.0 mi SW 8.1 mph - N/A   Scattered Clouds
12:55 PM 82.4 °F 48.2 °F 30% 30.24 in 10.0 mi SW 8.1 mph - N/A   Scattered Clouds
1:54 PM 84.2 °F 46.4 °F 27% 30.18 in 10.0 mi SW 10.4 mph - N/A   Scattered Clouds
2:48 PM 78.8 °F 44.6 °F 30% 29.74 in 10.0 mi Calm Calm - N/A   Scattered Clouds
3:47 PM 86.0 °F 44.6 °F 23% 30.12 in 10.0 mi SW 10.4 mph - N/A   Scattered Clouds
4:57 PM 82.4 °F 42.8 °F 25% 30.12 in 10.0 mi SW 12.7 mph - N/A   Scattered Clouds
6:04 PM 77.0 °F 42.8 °F 29% 29.78 in 10.0 mi WSW 8.1 mph - N/A   Scattered Clouds
6:45 PM 71.6 °F 44.6 °F 38% 30.18 in 10.0 mi WSW 6.9 mph - N/A   Scattered Clouds
8:07 PM 66.2 °F 44.6 °F 46% 30.21 in 8.0 mi West 3.5 mph - N/A   Partly Cloudy
8:46 PM 64.4 °F 42.8 °F 45% 29.87 in 8.0 mi Calm Calm - N/A   Partly Cloudy
9:40 PM 62.6 °F 42.8 °F 48% 30.21 in 8.0 mi Calm Calm - N/A   Partly Cloudy
10:43 PM 59.0 °F 42.8 °F 55% 30.23 in 8.0 mi Calm Calm - N/A   Partly Cloudy
11:50 PM 55.4 °F 41.0 °F 58% 29.98 in 8.0 mi Calm Calm - N/A   Partly Cloudy